Hourly Weather Roundup
Issued by NWS Central Illinois

Home | Current Version | Previous Version | Text Only | Print | Product List | Glossary On
Versions: 1 2 3 4 5 6 7 8 9 10 11 12 13 14 15 16 17 18 19 20 21 22 23 24 25 26 27 28 29 30 31 32 33 34 35 36 37 38 39 40 41 42 43 44 45 46 47 48 49 50
000
NZUS43 KILX 011210
HWRILX

AREA WEATHER ROUNDUP
NATIONAL WEATHER SERVICE, LINCOLN IL
700 AM CDT WED JUL 01 2015


CITY           SKY/WX    TMP DP  RH WIND       PRES   REMARKS
BLOOMINGTON    CLOUDY    63  62  96 E6        29.94S FOG
6HR MIN TEMP:  63; 6HR MAX TEMP:  67;

CHAMPAIGN      CLOUDY    64  62  93 E7        29.93R FOG
6HR MIN TEMP:  63; 6HR MAX TEMP:  65;

DANVILLE       MOSUNNY   61  59  94 E3        29.92R FOG
6HR MIN TEMP:  59; 6HR MAX TEMP:  63;

DECATUR        PTSUNNY   65  63  93 E3        29.92R FOG
6HR MIN TEMP:  63; 6HR MAX TEMP:  67;

EFFINGHAM      CLOUDY    68  65  92 CALM      29.93R FOG
FLORA          PTSUNNY   69  69  98 CALM      29.92R FOG
6HR MIN TEMP:  66; 6HR MAX TEMP:  69;

GALESBURG      MOSUNNY   64  63  95 NE3       29.91F FOG
JACKSONVILLE   CLOUDY    71  69  93 SW3       29.90S FOG
6HR MIN TEMP:  68; 6HR MAX TEMP:  72;

LACON          PTSUNNY   61  57  89 E3        29.93S
6HR MIN TEMP:  60; 6HR MAX TEMP:  65;

LAWRENCEVILLE  PTSUNNY   68  67  96 CALM      29.91F FOG
6HR MIN TEMP:  66; 6HR MAX TEMP:  71;

LITCHFIELD     CLOUDY    69  66  91 W5        29.91S
$$


CITY           SKY/WX    TMP DP  RH WIND       PRES   REMARKS
LINCOLN        CLOUDY    68  65  90 E3        29.92S FOG
6HR MIN TEMP:  66; 6HR MAX TEMP:  68;

MACOMB         CLOUDY    66  65  97 NE3       29.92F FOG
MATTOON          N/A     65  64  97 NE6       29.91R FOG
6HR MIN TEMP:  63; 6HR MAX TEMP:  66;

MT CARMEL AP   PTSUNNY   70  66  88 CALM      29.90S FOG
OLNEY-NOBLE AP PTSUNNY   68  66  94 CALM      29.92R FOG
PARIS          MOSUNNY   65  64  99 E3        29.94R FOG
6HR MIN TEMP:  62; 6HR MAX TEMP:  65;

PEORIA         PTSUNNY   69  63  81 E5        29.91S HAZE
6HR MIN TEMP:  68; 6HR MAX TEMP:  70;

PONTIAC        CLOUDY    61  59  94 E6        29.95S
RANTOUL        CLOUDY    64  61  90 E6        29.94R FOG
6HR MIN TEMP:  64; 6HR MAX TEMP:  67;

ROBINSON       PTSUNNY   65  65  97 CALM      29.91S FOG
6HR MIN TEMP:  64; 6HR MAX TEMP:  66;

SPRINGFIELD    PTSUNNY   71  68  90 CALM      29.89F FOG
6HR MIN TEMP:  68; 6HR MAX TEMP:  71;

TAYLORVILLE    PTSUNNY   66  66 100 CALM      29.90F FOG
$$

...REGIONAL REPORTS...


CITY           SKY/WX    TMP DP  RH WIND       PRES   REMARKS
CHICAGO O`HARE CLOUDY    57  51  80 NE3       29.97R
KANKAKEE       PTSUNNY   59  56  91 NE6       29.96R
MOLINE         CLOUDY    63  59  87 E8        29.92R FOG
MOUNT STERLING NOT AVBL
MOUNT VERNON   CLOUDY    72  66  83 CALM      29.93R
PITTSFIELD     CLOUDY    69  65  86 CALM      29.91S
QUINCY         CLOUDY    70  66  87 W3        29.90S FOG
ROCKFORD       CLOUDY    59  54  83 E6        29.98R
$$


CITY           SKY/WX    TMP DP  RH WIND       PRES   REMARKS
BURLINGTON     MOSUNNY   68  65  90 NE5       29.90S FOG
CEDAR RAPIDS   SUNNY     61  57  87 NE9       29.93R
DES MOINES     PTSUNNY   68  61  78 E7        29.89S
KIRKSVILLE     CLOUDY    69  69 100 E3        29.90F FOG
OTTUMWA        MOSUNNY   64  62  93 E9        29.88F
ST LOUIS       CLOUDY    73  68  83 SW8       29.90F HAZE
$$


CITY           SKY/WX    TMP DP  RH WIND       PRES   REMARKS
TERRE HAUTE    MOSUNNY   66  64  93 CALM      29.93R FOG
EVANSVILLE     PTSUNNY   71  69  93 CALM      29.91R FOG
INDIANAPOLIS   PTSUNNY   65  58  78 NE7       29.91R
LAFAYETTE      MOSUNNY   61  58  90 CALM      29.94R
MADISON        PTSUNNY   56  46  69 N8        29.98R
MILWAUKEE      MOSUNNY   55  47  74 NW8       29.96S
$$





USA.gov is the U.S. government's official web portal to all federal, state and local government web resources and services.